Regional Weather Roundup
Issued by NWS

Home | Current Version | Previous Version | Text Only | Print | Product List | Glossary Off
Versions: 1 2 3 4 5 6 7 8 9 10 11 12 13 14 15 16 17 18 19 20 21 22 23 24 25 26 27 28 29 30 31 32 33 34 35 36 37 38 39 40 41 42 43 44 45 46 47 48 49 50

000
ASUS43 KBIS 220810
RWRND

NORTH DAKOTA REGIONAL WEATHER ROUNDUP
NATIONAL WEATHER SERVICE BISMARCK ND
300 AM CDT FRI SEP 22 2017

NOTE: "FAIR" INDICATES FEW OR NO CLOUDS BELOW 12,000 FEET WITH NO
SIGNIFICANT WEATHER AND/OR OBSTRUCTIONS TO VISIBILITY.


NDZ001>003-009>011-017-220900-
NORTHWEST NORTH DAKOTA

CITY           SKY/WX    TMP DP  RH WIND       PRES   REMARKS
WILLISTON      LGT RAIN  48  40  73 N15       29.94R
MINOT          PTCLDY    51  39  63 N16       29.88R
MINOT AFB      CLOUDY    50  39  67 N13       29.87F
$$

NDZ018>021-031>035-040>046-220900-
SOUTHWEST NORTH DAKOTA

CITY           SKY/WX    TMP DP  RH WIND       PRES   REMARKS
BISMARCK       CLEAR     57  48  72 N10       29.79S
DICKINSON      MOCLDY    50  37  61 N14       29.85R
GARRISON         N/A     51  40  65 N9G20     29.83S
HETTINGER ARPT CLEAR     49  36  61 N15G23    29.83S
$$

NDZ004>008-012>016-024-026-027-054-220900-
NORTHEAST NORTH DAKOTA

CITY           SKY/WX    TMP DP  RH WIND       PRES   REMARKS
GRAND FORKS    CLEAR     59  58  96 NW8       29.72F
GRND FRKS AFB  CLEAR     58  55  89 N12       29.74R
DEVILS LAKE    CLEAR     54  50  86 N16       29.81F
$$

NDZ022-023-025-028>030-036>039-047>053-220900-
SOUTHEAST NORTH DAKOTA

CITY           SKY/WX    TMP DP  RH WIND       PRES   REMARKS
FARGO          CLOUDY    71  69  93 SE7       29.71R
JAMESTOWN      CLEAR     55  51  86 N13       29.74R
$$




USA.gov is the U.S. government's official web portal to all federal, state and local government web resources and services.